Weather reports worldwide

Advertisment
Moron de la Frontera, Spain (8397): temperature & dewpoint: 05.12.2019 08:00:00 - 11.12.2019 08:00:00 (CET)Moron de la Frontera, Spain (8397): wind speed: 05.12.2019 08:00:00 - 11.12.2019 08:00:00 (CET)Moron de la Frontera, Spain (8397): wind direction: 05.12.2019 08:00:00 - 11.12.2019 08:00:00 (CET)Moron de la Frontera, Spain (8397): reduced air pressure: 05.12.2019 08:00:00 - 11.12.2019 08:00:00 (CET)Moron de la Frontera, Spain (8397): visibility: 05.12.2019 08:00:00 - 11.12.2019 08:00:00 (CET)
Date & Time tt [°C] td [°C] ff [km/h] ff [kn] dd ppp [hPa] vv [km]
11.12.2019 08:00:00 - - - - - - -
11.12.2019 07:00:00 4,1 2,5 0 0 N 1026,4 10
11.12.2019 06:00:00 - - - - - - -
11.12.2019 05:00:00 - - - - - - -
11.12.2019 04:00:00 - - - - - - -
11.12.2019 03:00:00 - - - - - - -
11.12.2019 02:00:00 - - - - - - -
11.12.2019 01:00:00 6,3 4,1 5 3 S 1026,7 10
11.12.2019 00:00:00 - - - - - - -
10.12.2019 23:00:00 - - - - - - -
10.12.2019 22:00:00 8,8 5,7 8 4 SSE 1026,4 10
10.12.2019 21:00:00 - - - - - - -
10.12.2019 20:00:00 - - - - - - -
10.12.2019 19:00:00 13,6 6,2 4 2 SSE 1026,2 15
10.12.2019 18:00:00 - - - - - - -
10.12.2019 17:00:00 - - - - - - -
10.12.2019 16:00:00 17,2 6,4 4 2 NNE 1026,0 15
10.12.2019 15:00:00 - - - - - - -
10.12.2019 14:00:00 - - - - - - -
10.12.2019 13:00:00 13,7 7,9 9 5 ENE 1028,0 15
10.12.2019 12:00:00 - - - - - - -
10.12.2019 11:00:00 - - - - - - -
10.12.2019 10:00:00 8,1 6,9 11 6 ENE 1028,6 5
10.12.2019 09:00:00 - - - - - - -
10.12.2019 08:00:00 - - - - - - -
10.12.2019 07:00:00 8,6 7,1 13 7 E 1028,2 8
10.12.2019 06:00:00 - - - - - - -
10.12.2019 05:00:00 - - - - - - -
10.12.2019 04:00:00 8,3 7,2 8 4 E 1029,0 5
10.12.2019 03:00:00 - - - - - - -
10.12.2019 02:00:00 - - - - - - -
10.12.2019 01:00:00 9,3 7,7 5 3 E 1029,4 4,0
10.12.2019 00:00:00 - - - - - - -
09.12.2019 23:00:00 - - - - - - -
09.12.2019 22:00:00 10,7 8,3 4 2 ENE 1029,6 10
09.12.2019 21:00:00 - - - - - - -
09.12.2019 20:00:00 - - - - - - -
09.12.2019 19:00:00 14,2 9,2 4 2 ENE 1029,3 20
09.12.2019 18:00:00 - - - - - - -
09.12.2019 17:00:00 - - - - - - -
09.12.2019 16:00:00 16,3 11,5 9 5 NNE 1028,8 20
09.12.2019 15:00:00 - - - - - - -
09.12.2019 14:00:00 - - - - - - -
09.12.2019 13:00:00 15,4 10,6 5 3 ENE 1030,2 12
09.12.2019 12:00:00 - - - - - - -
09.12.2019 11:00:00 - - - - - - -
09.12.2019 10:00:00 12,4 9,8 2 1 ESE 1030,2 9
09.12.2019 09:00:00 - - - - - - -
09.12.2019 08:00:00 - - - - - - -
09.12.2019 07:00:00 11,2 8,9 0 0 N 1028,7 12
09.12.2019 06:00:00 - - - - - - -
09.12.2019 05:00:00 - - - - - - -
09.12.2019 04:00:00 9,5 7,4 0 0 N 1028,5 12
09.12.2019 03:00:00 - - - - - - -
09.12.2019 02:00:00 - - - - - - -
09.12.2019 01:00:00 9,9 7,2 0 0 N 1028,7 12
09.12.2019 00:00:00 - - - - - - -
08.12.2019 23:00:00 - - - - - - -
08.12.2019 22:00:00 11,8 7,7 5 3 SW 1028,3 15
08.12.2019 21:00:00 - - - - - - -
08.12.2019 20:00:00 - - - - - - -
08.12.2019 19:00:00 15,0 7,1 4 2 WSW 1026,9 15
08.12.2019 18:00:00 - - - - - - -
08.12.2019 17:00:00 - - - - - - -
08.12.2019 16:00:00 18,6 6,8 4 2 W 1025,8 20
08.12.2019 15:00:00 - - - - - - -
08.12.2019 14:00:00 - - - - - - -
08.12.2019 13:00:00 15,3 7,3 0 0 N 1027,4 15
08.12.2019 12:00:00 - - - - - - -
08.12.2019 11:00:00 - - - - - - -
08.12.2019 10:00:00 7,1 5,6 4 2 N 1028,2 9
08.12.2019 09:00:00 - - - - - - -
08.12.2019 08:00:00 - - - - - - -
08.12.2019 07:00:00 5,7 4,2 4 2 SE 1026,3 8
08.12.2019 06:00:00 - - - - - - -
08.12.2019 05:00:00 - - - - - - -
08.12.2019 04:00:00 7,0 5,2 4 2 S 1026,0 15
08.12.2019 03:00:00 - - - - - - -
08.12.2019 02:00:00 - - - - - - -
08.12.2019 01:00:00 7,8 5,3 5 3 S 1026,3 15
08.12.2019 00:00:00 - - - - - - -
07.12.2019 23:00:00 - - - - - - -
07.12.2019 22:00:00 9,4 5,9 0 0 N 1025,7 15
07.12.2019 21:00:00 - - - - - - -
07.12.2019 20:00:00 - - - - - - -
07.12.2019 19:00:00 14,6 6,2 2 1 E 1023,8 20
07.12.2019 18:00:00 - - - - - - -
07.12.2019 17:00:00 - - - - - - -
07.12.2019 16:00:00 18,9 7,4 8 4 NNE 1022,1 20
07.12.2019 15:00:00 - - - - - - -
07.12.2019 14:00:00 - - - - - - -
07.12.2019 13:00:00 16,2 7,9 5 3 N 1023,6 15
07.12.2019 12:00:00 - - - - - - -
07.12.2019 11:00:00 - - - - - - -
07.12.2019 10:00:00 8,5 7,4 5 3 ENE 1023,9 5
07.12.2019 09:00:00 - - - - - - -
07.12.2019 08:00:00 - - - - - - -
07.12.2019 07:00:00 5,9 4,5 4 2 ESE 1022,3 8
07.12.2019 06:00:00 - - - - - - -
07.12.2019 05:00:00 - - - - - - -
07.12.2019 04:00:00 6,8 5,1 2 1 ESE 1022,0 9
07.12.2019 03:00:00 - - - - - - -
07.12.2019 02:00:00 - - - - - - -
07.12.2019 01:00:00 7,9 5,9 2 1 SSE 1021,9 9
07.12.2019 00:00:00 - - - - - - -
06.12.2019 23:00:00 - - - - - - -
06.12.2019 22:00:00 10,7 6,6 4 2 ENE 1020,6 12
06.12.2019 21:00:00 - - - - - - -
06.12.2019 20:00:00 - - - - - - -
06.12.2019 19:00:00 15,2 7,0 5 3 E 1019,2 15
06.12.2019 18:00:00 - - - - - - -
06.12.2019 17:00:00 - - - - - - -
06.12.2019 16:00:00 18,8 6,0 15 8 NE 1018,0 25
06.12.2019 15:00:00 - - - - - - -
06.12.2019 14:00:00 - - - - - - -
06.12.2019 13:00:00 16,1 6,8 13 7 ENE 1019,5 20
06.12.2019 12:00:00 - - - - - - -
06.12.2019 11:00:00 - - - - - - -
06.12.2019 10:00:00 9,9 6,4 15 8 ENE 1020,2 20
06.12.2019 09:00:00 - - - - - - -
06.12.2019 08:00:00 - - - - - - -
06.12.2019 07:00:00 9,0 5,9 5 3 E 1018,0 15
06.12.2019 06:00:00 - - - - - - -
06.12.2019 05:00:00 - - - - - - -
06.12.2019 04:00:00 8,9 6,9 8 4 ENE 1017,4 10
06.12.2019 03:00:00 - - - - - - -
06.12.2019 02:00:00 - - - - - - -
06.12.2019 01:00:00 10,5 7,9 9 5 NE 1017,4 10
06.12.2019 00:00:00 - - - - - - -
05.12.2019 23:00:00 - - - - - - -
05.12.2019 22:00:00 12,2 6,9 9 5 E 1016,5 25
05.12.2019 21:00:00 - - - - - - -
05.12.2019 20:00:00 - - - - - - -
05.12.2019 19:00:00 14,1 6,2 11 6 E 1015,0 25
05.12.2019 18:00:00 - - - - - - -
05.12.2019 17:00:00 - - - - - - -
05.12.2019 16:00:00 16,8 6,0 15 8 ENE 1013,2 25
05.12.2019 15:00:00 - - - - - - -
05.12.2019 14:00:00 - - - - - - -
05.12.2019 13:00:00 14,5 5,3 16 9 ENE 1014,3 20
05.12.2019 12:00:00 - - - - - - -
05.12.2019 11:00:00 - - - - - - -
05.12.2019 10:00:00 8,0 3,8 8 4 E 1014,7 14
05.12.2019 09:00:00 - - - - - - -
05.12.2019 08:00:00 - - - - - - -

tt = temperature
td = dewpoint
ff = wind speed
dd = wind direction
ppp = reduced air pressure
vv = visibility

Next stations